Time,TemperatureF,DewpointF,PressureIn,WindDirection,WindDirectionDegrees,WindSpeedMPH,WindSpeedGustMPH,Humidity,HourlyPrecipIn,Conditions,Clouds,dailyrainin,SolarRadiationWatts/m^2,SoftwareType,DateUTC
2013-05-14 00:00:00,51.7,32.6,29.79,West,261,7.0,7.0,48,0.00,,,0.00,0,Wunderground v.1.15,2013-05-14 06:00:00,
2013-05-14 00:11:00,49.9,32.0,29.78,WNW,287,6.0,6.0,50,0.00,,,0.00,0,Wunderground v.1.15,2013-05-14 06:11:00,
2013-05-14 00:20:00,49.4,32.0,29.78,WSW,257,5.0,6.0,51,0.00,,,0.00,0,Wunderground v.1.15,2013-05-14 06:20:00,
2013-05-14 00:31:00,51.8,32.7,29.78,WNW,282,7.0,7.0,48,0.00,,,0.00,0,Wunderground v.1.15,2013-05-14 06:31:00,
2013-05-14 00:40:00,49.9,28.8,29.78,West,277,5.0,10.0,44,0.00,,,0.00,0,Wunderground v.1.15,2013-05-14 06:40:00,
2013-05-14 00:50:00,49.4,31.0,29.78,West,267,5.0,5.0,49,0.00,,,0.00,0,Wunderground v.1.15,2013-05-14 06:50:00,
2013-05-14 01:00:00,48.3,30.5,29.78,West,267,4.0,4.0,50,0.00,,,0.00,0,Wunderground v.1.15,2013-05-14 07:00:00,
2013-05-14 01:10:00,47.4,31.1,29.77,West,269,5.0,5.0,53,0.00,,,0.00,0,Wunderground v.1.15,2013-05-14 07:10:00,
2013-05-14 01:20:00,47.0,32.1,29.77,West,272,4.0,7.0,56,0.00,,,0.00,0,Wunderground v.1.15,2013-05-14 07:20:00,
2013-05-14 01:30:00,46.3,30.1,29.77,NW,312,5.0,5.0,53,0.00,,,0.00,0,Wunderground v.1.15,2013-05-14 07:30:00,
2013-05-14 01:50:00,47.3,31.5,29.76,West,266,5.0,5.0,54,0.00,,,0.00,0,Wunderground v.1.15,2013-05-14 07:50:00,
2013-05-14 02:10:00,45.8,31.4,29.76,West,263,5.0,5.0,57,0.00,,,0.00,0,Wunderground v.1.15,2013-05-14 08:10:00,
2013-05-14 02:30:00,45.4,30.6,29.77,West,276,6.0,6.0,56,0.00,,,0.00,0,Wunderground v.1.15,2013-05-14 08:30:00,
2013-05-14 02:50:00,46.5,31.6,29.78,WSW,247,7.0,7.0,56,0.00,,,0.00,0,Wunderground v.1.15,2013-05-14 08:50:00,
2013-05-14 03:10:00,48.0,30.7,29.78,WSW,250,6.0,6.0,51,0.00,,,0.00,0,Wunderground v.1.15,2013-05-14 09:10:00,
2013-05-14 03:30:00,49.8,31.4,29.78,WSW,252,7.0,7.0,49,0.00,,,0.00,0,Wunderground v.1.15,2013-05-14 09:30:00,
2013-05-14 03:50:00,48.6,30.8,29.78,SW,227,8.0,10.0,50,0.00,,,0.00,0,Wunderground v.1.15,2013-05-14 09:50:00,
2013-05-14 04:10:00,50.4,31.4,29.78,WSW,239,9.0,10.0,48,0.00,,,0.00,0,Wunderground v.1.15,2013-05-14 10:10:00,
2013-05-14 04:30:00,49.8,31.4,29.78,WSW,257,8.0,8.0,49,0.00,,,0.00,0,Wunderground v.1.15,2013-05-14 10:30:00,
2013-05-14 04:41:00,48.6,32.2,29.78,WSW,246,7.0,7.0,53,0.00,,,0.00,0,Wunderground v.1.15,2013-05-14 10:41:00,
2013-05-14 04:50:00,46.9,31.6,29.78,WSW,244,7.0,9.0,55,0.00,,,0.00,0,Wunderground v.1.15,2013-05-14 10:50:00,
2013-05-14 05:01:00,50.8,31.8,29.78,WSW,254,8.0,9.0,48,0.00,,,0.00,0,Wunderground v.1.15,2013-05-14 11:01:00,
2013-05-14 05:10:00,52.3,31.6,29.78,WSW,255,8.0,10.0,45,0.00,,,0.00,0,Wunderground v.1.15,2013-05-14 11:10:00,
2013-05-14 05:30:00,52.4,31.7,29.78,West,260,9.0,13.0,45,0.00,,,0.00,0,Wunderground v.1.15,2013-05-14 11:30:00,
2013-05-14 05:41:00,52.6,31.8,29.78,WSW,249,9.0,9.0,45,0.00,,,0.00,0,Wunderground v.1.15,2013-05-14 11:41:00,
2013-05-14 05:50:00,52.9,31.6,29.78,West,269,9.0,9.0,44,0.00,,,0.00,0,Wunderground v.1.15,2013-05-14 11:50:00,
2013-05-14 06:01:00,52.9,32.1,29.78,WSW,249,7.0,7.0,45,0.00,,,0.00,12,Wunderground v.1.15,2013-05-14 12:01:00,
2013-05-14 06:10:00,52.8,32.0,29.78,SW,218,6.0,6.0,45,0.00,,,0.00,23,Wunderground v.1.15,2013-05-14 12:10:00,
2013-05-14 06:30:00,52.1,31.9,29.78,SW,236,1.0,1.0,46,0.00,,,0.00,49,Wunderground v.1.15,2013-05-14 12:30:00,
2013-05-14 06:41:00,53.0,32.2,29.78,SW,226,3.0,7.0,45,0.00,,,0.00,65,Wunderground v.1.15,2013-05-14 12:41:00,
2013-05-14 06:50:00,54.6,32.5,29.78,SW,234,6.0,8.0,43,0.00,,,0.00,90,Wunderground v.1.15,2013-05-14 12:50:00,
2013-05-14 07:10:00,57.2,32.4,29.78,WSW,254,8.0,8.0,39,0.00,,,0.00,153,Wunderground v.1.15,2013-05-14 13:10:00,
2013-05-14 07:21:00,58.2,32.7,29.78,West,268,7.0,7.0,38,0.00,,,0.00,209,Wunderground v.1.15,2013-05-14 13:21:00,
2013-05-14 07:30:00,59.0,32.7,29.78,WSW,245,7.0,7.0,37,0.00,,,0.00,250,Wunderground v.1.15,2013-05-14 13:30:00,
2013-05-14 07:50:00,59.9,33.5,29.77,WSW,258,8.0,11.0,37,0.00,,,0.00,290,Wunderground v.1.15,2013-05-14 13:50:00,
2013-05-14 08:01:00,59.9,32.9,29.77,WSW,246,12.0,13.0,36,0.00,,,0.00,306,Wunderground v.1.15,2013-05-14 14:01:00,
2013-05-14 08:10:00,60.3,33.2,29.77,SSW,207,12.0,13.0,36,0.00,,,0.00,387,Wunderground v.1.15,2013-05-14 14:10:00,
2013-05-14 08:21:00,60.9,33.0,29.77,WSW,254,11.0,11.0,35,0.00,,,0.00,431,Wunderground v.1.15,2013-05-14 14:21:00,
2013-05-14 08:30:00,61.7,33.0,29.77,WSW,250,11.0,11.0,34,0.00,,,0.00,418,Wunderground v.1.15,2013-05-14 14:30:00,
2013-05-14 08:41:00,62.0,33.3,29.77,SW,219,10.0,13.0,34,0.00,,,0.00,480,Wunderground v.1.15,2013-05-14 14:41:00,
2013-05-14 08:50:00,63.1,34.3,29.77,SE,140,6.0,13.0,34,0.00,,,0.00,548,Wunderground v.1.15,2013-05-14 14:50:00,
2013-05-14 09:01:00,65.2,35.4,29.77,SW,231,4.0,4.0,33,0.00,,,0.00,536,Wunderground v.1.15,2013-05-14 15:01:00,
2013-05-14 09:10:00,66.3,34.7,29.77,WNW,284,2.0,2.0,31,0.00,,,0.00,589,Wunderground v.1.15,2013-05-14 15:10:00,
2013-05-14 09:21:00,67.6,35.0,29.77,South,178,1.0,1.0,30,0.00,,,0.00,649,Wunderground v.1.15,2013-05-14 15:21:00,
2013-05-14 09:30:00,68.2,35.6,29.76,SSE,159,3.0,3.0,30,0.00,,,0.00,728,Wunderground v.1.15,2013-05-14 15:30:00,
2013-05-14 09:41:00,68.5,35.0,29.75,SSE,158,7.0,14.0,29,0.00,,,0.00,766,Wunderground v.1.15,2013-05-14 15:41:00,
2013-05-14 09:50:00,68.5,35.0,29.75,SSE,153,6.0,14.0,29,0.00,,,0.00,789,Wunderground v.1.15,2013-05-14 15:50:00,
2013-05-14 10:01:00,68.7,35.1,29.75,South,182,6.0,9.0,29,0.00,,,0.00,784,Wunderground v.1.15,2013-05-14 16:01:00,
2013-05-14 10:10:00,69.2,35.6,29.75,SSW,202,9.0,13.0,29,0.00,,,0.00,789,Wunderground v.1.15,2013-05-14 16:10:00,
2013-05-14 10:20:00,69.6,33.2,29.75,NNW,343,8.0,8.0,26,0.00,,,0.00,775,Wunderground v.1.15,2013-05-14 16:20:00,
2013-05-14 10:30:00,70.4,35.7,29.75,NNW,340,3.0,4.0,28,0.00,,,0.00,745,Wunderground v.1.15,2013-05-14 16:30:00,
2013-05-14 10:40:00,70.0,32.5,29.75,NW,309,7.0,7.0,25,0.00,,,0.00,752,Wunderground v.1.15,2013-05-14 16:40:00,
2013-05-14 11:00:00,69.3,32.9,29.75,NW,311,4.0,6.0,26,0.00,,,0.00,911,Wunderground v.1.15,2013-05-14 17:00:00,
2013-05-14 11:20:00,71.3,34.6,29.73,SSE,155,5.0,10.0,26,0.00,,,0.00,1004,Wunderground v.1.15,2013-05-14 17:20:00,
2013-05-14 11:40:00,70.6,35.9,29.73,SW,226,8.0,9.0,28,0.00,,,0.00,420,Wunderground v.1.15,2013-05-14 17:40:00,
2013-05-14 12:00:00,69.5,32.1,29.73,NW,316,10.0,10.0,25,0.00,,,0.00,272,Wunderground v.1.15,2013-05-14 18:00:00,
2013-05-14 12:20:00,68.1,32.8,29.74,NW,320,5.0,9.0,27,0.00,,,0.00,394,Wunderground v.1.15,2013-05-14 18:20:00,
2013-05-14 12:40:00,66.8,35.2,29.73,North,11,7.0,7.0,31,0.00,,,0.00,635,Wunderground v.1.15,2013-05-14 18:40:00,
2013-05-14 13:00:00,71.0,35.3,29.72,WSW,240,3.0,3.0,27,0.00,,,0.00,1290,Wunderground v.1.15,2013-05-14 19:00:00,
2013-05-14 13:20:00,65.3,36.2,29.73,NNW,327,16.0,16.0,34,0.00,,,0.00,255,Wunderground v.1.15,2013-05-14 19:20:00,
2013-05-14 13:40:00,70.2,37.3,29.70,ENE,65,2.0,8.0,30,0.00,,,0.00,1153,Wunderground v.1.15,2013-05-14 19:40:00,
2013-05-14 14:00:00,70.7,38.6,29.69,NE,41,3.0,3.0,31,0.00,,,0.00,1118,Wunderground v.1.15,2013-05-14 20:00:00,
2013-05-14 14:20:00,72.9,36.0,29.69,North,5,9.0,14.0,26,0.00,,,0.00,1162,Wunderground v.1.15,2013-05-14 20:20:00,
2013-05-14 14:30:00,72.5,34.7,29.68,North,11,5.0,8.0,25,0.00,,,0.00,541,Wunderground v.1.15,2013-05-14 20:30:00,
2013-05-14 14:40:00,73.0,33.0,29.68,West,274,6.0,6.0,23,0.00,,,0.00,471,Wunderground v.1.15,2013-05-14 20:40:00,
2013-05-14 14:51:00,73.4,33.3,29.68,NW,322,8.0,12.0,23,0.00,,,0.00,916,Wunderground v.1.15,2013-05-14 20:51:00,
2013-05-14 15:00:00,71.7,31.9,29.68,WNW,300,8.0,12.0,23,0.00,,,0.00,278,Wunderground v.1.15,2013-05-14 21:00:00,
2013-05-14 15:10:00,70.1,30.6,29.68,NW,306,6.0,6.0,23,0.00,,,0.00,345,Wunderground v.1.15,2013-05-14 21:10:00,
2013-05-14 15:20:00,71.2,33.6,29.67,North,11,5.0,11.0,25,0.00,,,0.00,1048,Wunderground v.1.15,2013-05-14 21:20:00,
2013-05-14 15:30:00,72.7,33.8,29.67,NNW,348,10.0,10.0,24,0.00,,,0.00,705,Wunderground v.1.15,2013-05-14 21:30:00,
2013-05-14 15:40:00,72.4,33.5,29.67,NW,315,9.0,14.0,24,0.00,,,0.00,663,Wunderground v.1.15,2013-05-14 21:40:00,
2013-05-14 15:51:00,73.3,35.3,29.67,NNW,343,7.0,7.0,25,0.00,,,0.00,803,Wunderground v.1.15,2013-05-14 21:51:00,
2013-05-14 16:00:00,73.1,34.1,29.67,WNW,300,10.0,19.0,24,0.00,,,0.00,784,Wunderground v.1.15,2013-05-14 22:00:00,
2013-05-14 16:10:00,71.3,34.6,29.66,WNW,302,11.0,11.0,26,0.00,,,0.00,1002,Wunderground v.1.15,2013-05-14 22:10:00,
2013-05-14 16:20:00,72.4,32.5,29.66,NNW,348,10.0,10.0,23,0.00,,,0.00,993,Wunderground v.1.15,2013-05-14 22:20:00,
2013-05-14 16:31:00,71.6,32.9,29.66,NW,304,7.0,7.0,24,0.00,,,0.00,740,Wunderground v.1.15,2013-05-14 22:31:00,
2013-05-14 16:40:00,72.6,33.7,29.65,NNW,336,4.0,4.0,24,0.00,,,0.00,355,Wunderground v.1.15,2013-05-14 22:40:00,
2013-05-14 16:50:00,71.9,33.1,29.65,NW,321,4.0,4.0,24,0.00,,,0.00,269,Wunderground v.1.15,2013-05-14 22:50:00,
2013-05-14 17:00:00,71.0,32.4,29.65,WNW,286,4.0,7.0,24,0.00,,,0.00,443,Wunderground v.1.15,2013-05-14 23:00:00,
2013-05-14 17:10:00,73.1,34.1,29.64,West,277,5.0,5.0,24,0.00,,,0.00,643,Wunderground v.1.15,2013-05-14 23:10:00,
2013-05-14 17:20:00,71.0,31.3,29.65,WNW,284,9.0,12.0,23,0.00,,,0.00,174,Wunderground v.1.15,2013-05-14 23:20:00,
2013-05-14 17:30:00,71.1,33.5,29.64,WNW,293,7.0,7.0,25,0.00,,,0.00,555,Wunderground v.1.15,2013-05-14 23:30:00,
2013-05-14 17:40:00,71.5,31.7,29.65,NNW,335,3.0,6.0,23,0.00,,,0.00,211,Wunderground v.1.15,2013-05-14 23:40:00,
2013-05-14 17:50:00,70.7,32.1,29.65,NNW,346,5.0,5.0,24,0.00,,,0.00,174,Wunderground v.1.15,2013-05-14 23:50:00,
2013-05-14 18:00:00,69.9,33.4,29.64,North,355,3.0,3.0,26,0.00,,,0.00,167,Wunderground v.1.15,2013-05-15 00:00:00,
2013-05-14 18:10:00,69.5,31.1,29.64,NW,304,1.0,2.0,24,0.00,,,0.00,137,Wunderground v.1.15,2013-05-15 00:10:00,
2013-05-14 18:20:00,69.3,31.9,29.64,WNW,297,1.0,1.0,25,0.00,,,0.00,128,Wunderground v.1.15,2013-05-15 00:20:00,
2013-05-14 18:30:00,69.8,32.4,29.64,WNW,297,0.0,0.0,25,0.00,,,0.00,148,Wunderground v.1.15,2013-05-15 00:30:00,
2013-05-14 18:50:00,68.8,33.4,29.64,NW,325,3.0,6.0,27,0.00,,,0.00,121,Wunderground v.1.15,2013-05-15 00:50:00,
2013-05-14 19:10:00,66.8,34.3,29.64,West,263,1.0,1.0,30,0.00,,,0.00,102,Wunderground v.1.15,2013-05-15 01:10:00,
2013-05-14 19:30:00,65.2,36.1,29.63,West,264,1.0,1.0,34,0.00,,,0.00,37,Wunderground v.1.15,2013-05-15 01:30:00,
2013-05-14 19:50:00,61.8,36.6,29.63,West,265,1.0,1.0,39,0.00,,,0.00,19,Wunderground v.1.15,2013-05-15 01:50:00,
2013-05-14 20:10:00,59.8,37.2,29.64,NNW,329,2.0,2.0,43,0.00,,,0.00,9,Wunderground v.1.15,2013-05-15 02:10:00,
2013-05-14 20:21:00,59.0,34.7,29.65,WNW,296,1.0,1.0,40,0.00,,,0.00,0,Wunderground v.1.15,2013-05-15 02:21:00,
2013-05-14 20:30:00,58.1,36.3,29.65,WNW,296,0.0,1.0,44,0.00,,,0.00,0,Wunderground v.1.15,2013-05-15 02:30:00,
2013-05-14 20:41:00,56.6,34.3,29.65,WNW,300,0.0,0.0,43,0.00,,,0.00,0,Wunderground v.1.15,2013-05-15 02:41:00,
2013-05-14 20:50:00,55.4,33.3,29.65,WNW,300,0.0,0.0,43,0.00,,,0.00,0,Wunderground v.1.15,2013-05-15 02:50:00,
2013-05-14 21:01:00,54.2,33.9,29.66,WNW,299,2.0,2.0,46,0.00,,,0.00,0,Wunderground v.1.15,2013-05-15 03:01:00,
2013-05-14 21:10:00,53.6,32.8,29.67,NNW,338,1.0,3.0,45,0.00,,,0.00,0,Wunderground v.1.15,2013-05-15 03:10:00,
2013-05-14 21:21:00,55.2,30.0,29.67,West,267,6.0,6.0,38,0.00,,,0.00,0,Wunderground v.1.15,2013-05-15 03:21:00,
2013-05-14 21:30:00,59.0,32.1,29.68,West,269,4.0,4.0,36,0.00,,,0.00,0,Wunderground v.1.15,2013-05-15 03:30:00,
2013-05-14 21:40:00,62.1,30.3,29.67,WSW,258,7.0,7.0,30,0.00,,,0.00,0,Wunderground v.1.15,2013-05-15 03:40:00,
2013-05-14 22:00:00,61.4,31.3,29.67,West,281,8.0,8.0,32,0.00,,,0.00,0,Wunderground v.1.15,2013-05-15 04:00:00,
2013-05-14 22:20:00,57.8,31.7,29.68,WSW,241,3.0,15.0,37,0.00,,,0.00,0,Wunderground v.1.15,2013-05-15 04:20:00,
2013-05-14 22:40:00,58.0,34.4,29.68,SW,236,16.0,16.0,41,0.00,,,0.00,0,Wunderground v.1.15,2013-05-15 04:40:00,
2013-05-14 22:51:00,57.3,35.6,29.67,West,261,18.0,18.0,44,0.00,,,0.00,0,Wunderground v.1.15,2013-05-15 04:51:00,
2013-05-14 23:00:00,56.9,35.8,29.67,SW,218,20.0,22.0,45,0.00,,,0.00,0,Wunderground v.1.15,2013-05-15 05:00:00,
2013-05-14 23:11:00,56.2,36.2,29.67,SW,225,19.0,19.0,47,0.00,,,0.00,0,Wunderground v.1.15,2013-05-15 05:11:00,
2013-05-14 23:20:00,55.9,35.9,29.67,WSW,255,19.0,19.0,47,0.00,,,0.00,0,Wunderground v.1.15,2013-05-15 05:20:00,
2013-05-14 23:31:00,55.3,35.9,29.67,WSW,255,19.0,23.0,48,0.00,,,0.00,0,Wunderground v.1.15,2013-05-15 05:31:00,
2013-05-14 23:40:00,55.2,36.4,29.67,WNW,284,16.0,16.0,49,0.00,,,0.00,0,Wunderground v.1.15,2013-05-15 05:40:00,